7 * 24
多渠道服务支持
QIANFAN-146(NORAD编号69105)是中国千帆(QIANFAN)星座组网卫星之一,由上海航数空间信息科技(SpaceSail)公司研发。千帆星座计划构建由超万颗卫星组成的全球宽带互联网星座,为全球用户提供高速、安全、稳定的宽带互联网接入服务。该卫星随千帆星座首批组网卫星,于2024年8月由长征六号改运载火箭在太原卫星发射中心成功发射入轨,是中国商业低轨宽带互联网星座部署的重要组成部分。
中国
(CN)
| 数据来源 | 国际轨道数据 |
| 星历时间: | 2026-06-13T03:22:30+0800 6小时前 查看轨道信息 |
| 半长轴: | 7227.457km |
| 偏心率: | 0.00171 |
| 轨道倾角: | 89.011° |
| 近地点辐角 | 116.637° |
| 升交点赤经 | 22.687° |
| 平近点角 | 243.657° |
| 近地点: | 836.961km |
| 远地点: | 861.679km |
| 周期: | 101.915分钟 |
| 每日圈数: | 14.129425 |